Time,TemperatureF,DewpointF,PressureIn,WindDirection,WindDirectionDegrees,WindSpeedMPH,WindSpeedGustMPH,Humidity,HourlyPrecipIn,Conditions,Clouds,dailyrainin,SoftwareType,DateUTC
2013-03-25 00:00:00,33.1,28.5,29.58,ENE,76,2.0,12.0,83,0.00,,OVC055,0.00,VWS V13.01,2013-03-25 04:00:00,
2013-03-25 00:01:00,33.1,28.5,29.58,East,81,0.0,2.0,83,0.00,,OVC110,0.00,VWS V13.01,2013-03-25 04:01:00,
2013-03-25 00:02:00,33.1,28.5,29.58,ENE,57,2.0,3.0,83,0.00,,OVC110,0.00,VWS V13.01,2013-03-25 04:02:00,
2013-03-25 00:07:00,33.1,28.2,29.58,NE,44,2.0,12.0,82,0.00,,OVC100,0.00,VWS V13.01,2013-03-25 04:07:00,
2013-03-25 00:12:00,33.1,28.2,29.57,NE,56,4.0,12.0,82,0.00,,OVC100,0.00,VWS V13.01,2013-03-25 04:12:00,
2013-03-25 00:17:00,33.2,28.3,29.57,NNE,13,3.0,12.0,82,0.00,,OVC100,0.00,VWS V13.01,2013-03-25 04:17:00,
2013-03-25 00:22:00,33.2,28.3,29.57,North,355,6.0,12.0,82,0.00,,OVC100,0.00,VWS V13.01,2013-03-25 04:22:00,
2013-03-25 00:27:00,33.2,28.0,29.57,East,82,1.0,12.0,81,0.00,,OVC100,0.00,VWS V13.01,2013-03-25 04:27:00,
2013-03-25 00:30:00,33.2,28.0,29.57,East,101,3.0,12.0,81,0.00,,OVC055,0.00,VWS V13.01,2013-03-25 04:30:00,
2013-03-25 00:32:00,33.2,28.0,29.57,NE,47,3.0,9.0,81,0.00,,OVC100,0.00,VWS V13.01,2013-03-25 04:32:00,
2013-03-25 00:37:00,33.2,28.0,29.57,East,80,4.0,9.0,81,0.00,,OVC100,0.00,VWS V13.01,2013-03-25 04:37:00,
2013-03-25 00:42:00,33.1,27.9,29.56,ENE,61,1.0,9.0,81,0.00,,OVC100,0.00,VWS V13.01,2013-03-25 04:42:00,
2013-03-25 00:48:00,33.1,27.9,29.56,ENE,63,2.0,12.0,81,0.00,,OVC100,0.00,VWS V13.01,2013-03-25 04:48:00,
2013-03-25 00:53:00,33.0,27.5,29.56,NE,49,2.0,12.0,80,0.00,,OVC100,0.00,VWS V13.01,2013-03-25 04:53:00,
2013-03-25 00:58:00,33.0,27.5,29.56,East,82,6.0,12.0,80,0.00,,OVC100,0.00,VWS V13.01,2013-03-25 04:58:00,
2013-03-25 01:00:00,33.0,27.5,29.56,ENE,71,2.0,12.0,80,0.00,,OVC055,0.00,VWS V13.01,2013-03-25 05:00:00,
2013-03-25 01:03:00,32.9,27.4,29.56,ENE,64,4.0,11.0,80,0.00,,OVC095,0.00,VWS V13.01,2013-03-25 05:03:00,
2013-03-25 01:08:00,32.9,27.4,29.56,ESE,111,4.0,11.0,80,0.00,,OVC095,0.00,VWS V13.01,2013-03-25 05:08:00,
2013-03-25 01:13:00,32.8,27.3,29.56,NNE,30,6.0,11.0,80,0.00,,OVC095,0.00,VWS V13.01,2013-03-25 05:13:00,
2013-03-25 01:18:00,32.8,27.0,29.56,ENE,62,7.0,11.0,79,0.00,,OVC095,0.00,VWS V13.01,2013-03-25 05:18:00,
2013-03-25 01:23:00,32.7,26.9,29.56,ESE,108,0.0,11.0,79,0.00,,OVC095,0.00,VWS V13.01,2013-03-25 05:23:00,
2013-03-25 01:28:00,32.7,26.9,29.56,ENE,71,3.0,12.0,79,0.00,,OVC095,0.00,VWS V13.01,2013-03-25 05:28:00,
2013-03-25 01:30:00,32.7,26.9,29.56,NE,43,6.0,12.0,79,0.00,,OVC055,0.00,VWS V13.01,2013-03-25 05:30:00,
2013-03-25 01:33:00,32.6,26.8,29.56,NE,53,3.0,10.0,79,0.00,,OVC095,0.00,VWS V13.01,2013-03-25 05:33:00,
2013-03-25 01:38:00,32.6,26.8,29.56,NE,34,3.0,15.0,79,0.00,,OVC095,0.00,VWS V13.01,2013-03-25 05:38:00,
2013-03-25 01:43:00,32.6,26.8,29.56,NE,53,6.0,15.0,79,0.00,,OVC095,0.00,VWS V13.01,2013-03-25 05:43:00,
2013-03-25 01:48:00,32.5,26.7,29.56,NE,40,4.0,15.0,79,0.00,,OVC095,0.00,VWS V13.01,2013-03-25 05:48:00,
2013-03-25 01:53:00,32.5,26.7,29.56,ENE,75,3.0,15.0,79,0.00,,OVC095,0.00,VWS V13.01,2013-03-25 05:53:00,
2013-03-25 01:58:00,32.5,26.7,29.56,East,97,2.0,15.0,79,0.00,,OVC095,0.00,VWS V13.01,2013-03-25 05:58:00,
2013-03-25 02:00:00,32.5,26.7,29.56,ENE,57,6.0,15.0,79,0.00,,OVC055,0.00,VWS V13.01,2013-03-25 06:00:00,
2013-03-25 02:03:00,32.5,26.7,29.56,NE,56,3.0,10.0,79,0.00,,OVC095,0.00,VWS V13.01,2013-03-25 06:03:00,
2013-03-25 02:08:00,32.5,26.7,29.56,ENE,60,3.0,10.0,79,0.00,,OVC095,0.00,VWS V13.01,2013-03-25 06:08:00,
2013-03-25 02:13:00,32.5,26.7,29.56,NE,44,9.0,10.0,79,0.00,,OVC095,0.00,VWS V13.01,2013-03-25 06:13:00,
2013-03-25 02:18:00,32.5,26.7,29.56,ENE,72,10.0,11.0,79,0.00,,OVC095,0.00,VWS V13.01,2013-03-25 06:18:00,
2013-03-25 02:23:00,32.5,26.7,29.56,ENE,61,1.0,11.0,79,0.00,,OVC095,0.00,VWS V13.01,2013-03-25 06:23:00,
2013-03-25 02:28:00,32.5,26.7,29.56,NE,38,4.0,11.0,79,0.00,,OVC095,0.00,VWS V13.01,2013-03-25 06:28:00,
2013-03-25 02:30:00,32.5,26.7,29.56,NE,52,3.0,11.0,79,0.00,,OVC055,0.00,VWS V13.01,2013-03-25 06:30:00,
2013-03-25 02:33:00,32.5,26.7,29.56,ENE,63,2.0,13.0,79,0.00,,OVC095,0.00,VWS V13.01,2013-03-25 06:33:00,
2013-03-25 02:38:00,32.5,27.0,29.56,ENE,66,2.0,13.0,80,0.00,,OVC095,0.00,VWS V13.01,2013-03-25 06:38:00,
2013-03-25 02:43:00,32.5,27.0,29.55,NE,47,6.0,13.0,80,0.00,,OVC095,0.00,VWS V13.01,2013-03-25 06:43:00,
2013-03-25 02:48:00,32.5,27.0,29.55,NE,48,8.0,13.0,80,0.00,,OVC095,0.00,VWS V13.01,2013-03-25 06:48:00,
2013-03-25 02:53:00,32.4,27.2,29.55,ENE,57,0.0,13.0,81,0.00,,OVC095,0.00,VWS V13.01,2013-03-25 06:53:00,
2013-03-25 02:58:00,32.4,27.2,29.55,NNE,17,3.0,13.0,81,0.00,,OVC095,0.00,VWS V13.01,2013-03-25 06:58:00,
2013-03-25 03:00:00,32.4,27.2,29.55,NE,53,7.0,13.0,81,0.00,,OVC055,0.00,VWS V13.01,2013-03-25 07:00:00,
2013-03-25 03:03:00,32.4,27.2,29.55,North,9,4.0,9.0,81,0.00,,OVC090,0.00,VWS V13.01,2013-03-25 07:03:00,
2013-03-25 03:08:00,32.4,27.2,29.55,NE,36,2.0,11.0,81,0.00,,OVC090,0.00,VWS V13.01,2013-03-25 07:08:00,
2013-03-25 03:13:00,32.4,27.2,29.55,ENE,59,3.0,11.0,81,0.00,,OVC090,0.00,VWS V13.01,2013-03-25 07:13:00,
2013-03-25 03:18:00,32.3,27.1,29.55,East,100,4.0,11.0,81,0.00,,OVC090,0.00,VWS V13.01,2013-03-25 07:18:00,
2013-03-25 03:23:00,32.3,27.1,29.55,NE,42,4.0,11.0,81,0.00,,OVC090,0.00,VWS V13.01,2013-03-25 07:23:00,
2013-03-25 03:28:00,32.3,26.8,29.55,North,355,4.0,11.0,80,0.00,,OVC090,0.00,VWS V13.01,2013-03-25 07:28:00,
2013-03-25 03:30:00,32.3,26.8,29.55,NE,40,10.0,11.0,80,0.00,,OVC055,0.00,VWS V13.01,2013-03-25 07:30:00,
2013-03-25 03:33:00,32.3,26.8,29.55,NE,43,3.0,10.0,80,0.00,,OVC090,0.00,VWS V13.01,2013-03-25 07:33:00,
2013-03-25 03:38:00,32.3,26.8,29.55,ENE,71,5.0,10.0,80,0.00,,OVC090,0.00,VWS V13.01,2013-03-25 07:38:00,
2013-03-25 03:43:00,32.3,26.8,29.56,ENE,63,0.0,10.0,80,0.00,,OVC090,0.00,VWS V13.01,2013-03-25 07:43:00,
2013-03-25 03:48:00,32.3,26.8,29.56,NE,46,2.0,12.0,80,0.00,,OVC090,0.00,VWS V13.01,2013-03-25 07:48:00,
2013-03-25 03:53:00,32.3,26.8,29.56,NE,51,2.0,12.0,80,0.00,,OVC090,0.00,VWS V13.01,2013-03-25 07:53:00,
2013-03-25 03:58:00,32.2,27.0,29.56,NE,54,1.0,12.0,81,0.00,,OVC090,0.00,VWS V13.01,2013-03-25 07:58:00,
2013-03-25 04:00:00,32.2,27.0,29.56,NE,46,4.0,12.0,81,0.00,,OVC055,0.00,VWS V13.01,2013-03-25 08:00:00,
2013-03-25 04:03:00,32.1,26.9,29.56,ENE,77,3.0,7.0,81,0.00,,OVC090,0.00,VWS V13.01,2013-03-25 08:03:00,
2013-03-25 04:09:00,31.8,27.2,29.56,North,11,3.0,11.0,83,0.00,,OVC090,0.00,VWS V13.01,2013-03-25 08:09:00,
2013-03-25 04:14:00,31.4,27.1,29.56,ENE,74,0.0,11.0,84,0.00,,OVC090,0.00,VWS V13.01,2013-03-25 08:14:00,
2013-03-25 04:19:00,31.0,27.3,29.56,NNE,27,1.0,11.0,86,0.00,,,0.00,VWS V13.01,2013-03-25 08:19:00,
2013-03-25 04:24:00,30.7,27.3,29.56,ENE,61,1.0,11.0,87,0.00,,,0.00,VWS V13.01,2013-03-25 08:24:00,
2013-03-25 04:29:00,30.5,27.1,29.56,ENE,57,0.0,11.0,87,0.00,,,0.00,VWS V13.01,2013-03-25 08:29:00,
2013-03-25 04:30:00,30.5,27.1,29.56,ENE,57,0.0,11.0,87,0.00,,OVC055,0.00,VWS V13.01,2013-03-25 08:30:00,
2013-03-25 04:34:00,30.4,27.3,29.56,ENE,64,2.0,4.0,88,0.00,,,0.00,VWS V13.01,2013-03-25 08:34:00,
2013-03-25 04:39:00,30.2,27.4,29.56,ENE,65,3.0,4.0,89,0.00,,,0.00,VWS V13.01,2013-03-25 08:39:00,
2013-03-25 04:44:00,30.1,27.3,29.56,ENE,71,1.0,6.0,89,0.00,,,0.00,VWS V13.01,2013-03-25 08:44:00,
2013-03-25 04:49:00,30.1,27.5,29.55,East,88,2.0,6.0,90,0.00,,,0.00,VWS V13.01,2013-03-25 08:49:00,
2013-03-25 04:54:00,30.0,27.4,29.55,NNE,19,6.0,6.0,90,0.00,,,0.00,VWS V13.01,2013-03-25 08:54:00,
2013-03-25 04:59:00,29.9,27.3,29.55,NE,56,3.0,6.0,90,0.00,,,0.00,VWS V13.01,2013-03-25 08:59:00,
2013-03-25 05:00:00,29.9,27.3,29.55,NE,41,1.0,6.0,90,0.00,,OVC055,0.00,VWS V13.01,2013-03-25 09:00:00,
2013-03-25 05:04:00,29.9,27.6,29.55,NNE,26,2.0,5.0,91,0.00,,,0.00,VWS V13.01,2013-03-25 09:04:00,
2013-03-25 05:09:00,29.8,27.5,29.55,East,81,1.0,5.0,91,0.00,,,0.00,VWS V13.01,2013-03-25 09:09:00,
2013-03-25 05:14:00,29.7,27.4,29.55,North,5,3.0,6.0,91,0.00,,,0.00,VWS V13.01,2013-03-25 09:14:00,
2013-03-25 05:19:00,29.7,27.4,29.55,NNE,31,0.0,6.0,91,0.00,,,0.00,VWS V13.01,2013-03-25 09:19:00,
2013-03-25 05:24:00,29.6,27.3,29.55,ENE,63,2.0,6.0,91,0.00,,,0.00,VWS V13.01,2013-03-25 09:24:00,
2013-03-25 05:29:00,29.5,27.5,29.54,NE,51,2.0,7.0,92,0.00,,,0.00,VWS V13.01,2013-03-25 09:29:00,
2013-03-25 05:30:00,29.5,27.5,29.54,East,83,2.0,7.0,92,0.00,,OVC055,0.00,VWS V13.01,2013-03-25 09:30:00,
2013-03-25 05:34:00,29.4,27.4,29.54,ENE,75,2.0,11.0,92,0.00,,,0.00,VWS V13.01,2013-03-25 09:34:00,
2013-03-25 05:39:00,29.4,27.4,29.54,ENE,63,4.0,11.0,92,0.00,,,0.00,VWS V13.01,2013-03-25 09:39:00,
2013-03-25 05:44:00,29.3,27.3,29.54,NE,51,9.0,11.0,92,0.00,,,0.00,VWS V13.01,2013-03-25 09:44:00,
2013-03-25 05:49:00,29.3,27.3,29.54,NNE,29,4.0,11.0,92,0.00,,,0.00,VWS V13.01,2013-03-25 09:49:00,
2013-03-25 05:54:00,29.3,27.3,29.54,NE,42,0.0,11.0,92,0.00,,,0.00,VWS V13.01,2013-03-25 09:54:00,
2013-03-25 05:59:00,29.3,27.3,29.54,NNE,23,5.0,13.0,92,0.00,,,0.00,VWS V13.01,2013-03-25 09:59:00,
2013-03-25 06:00:00,29.3,27.3,29.54,East,80,3.0,13.0,92,0.00,,OVC055,0.00,VWS V13.01,2013-03-25 10:00:00,
2013-03-25 06:04:00,29.3,27.5,29.53,NE,55,4.0,6.0,93,0.00,,,0.00,VWS V13.01,2013-03-25 10:04:00,
2013-03-25 06:09:00,29.3,27.5,29.53,ENE,61,2.0,7.0,93,0.00,,,0.00,VWS V13.01,2013-03-25 10:09:00,
2013-03-25 06:14:00,29.2,27.4,29.53,ENE,65,2.0,7.0,93,0.00,,,0.00,VWS V13.01,2013-03-25 10:14:00,
2013-03-25 06:19:00,29.2,27.4,29.53,ENE,63,2.0,8.0,93,0.00,,,0.00,VWS V13.01,2013-03-25 10:19:00,
2013-03-25 06:24:00,29.2,27.4,29.53,NE,49,0.0,10.0,93,0.00,,,0.00,VWS V13.01,2013-03-25 10:24:00,
2013-03-25 06:29:00,29.2,27.4,29.53,NNW,348,3.0,10.0,93,0.00,,,0.00,VWS V13.01,2013-03-25 10:29:00,
2013-03-25 06:30:00,29.2,27.4,29.53,NE,50,9.0,10.0,93,0.00,,OVC055,0.00,VWS V13.01,2013-03-25 10:30:00,
2013-03-25 06:34:00,29.2,27.4,29.53,ENE,59,5.0,9.0,93,0.00,,,0.00,VWS V13.01,2013-03-25 10:34:00,
2013-03-25 06:39:00,29.2,27.4,29.53,ENE,59,6.0,9.0,93,0.00,,,0.00,VWS V13.01,2013-03-25 10:39:00,
2013-03-25 06:44:00,29.2,27.4,29.53,ENE,69,1.0,9.0,93,0.00,,,0.00,VWS V13.01,2013-03-25 10:44:00,
2013-03-25 06:49:00,29.3,27.5,29.53,ENE,65,4.0,10.0,93,0.00,,,0.00,VWS V13.01,2013-03-25 10:49:00,
2013-03-25 06:54:00,29.3,27.5,29.53,East,80,2.0,10.0,93,0.00,,,0.00,VWS V13.01,2013-03-25 10:54:00,
2013-03-25 06:59:00,29.3,27.5,29.53,East,84,11.0,11.0,93,0.00,,,0.00,VWS V13.01,2013-03-25 10:59:00,
2013-03-25 07:00:00,29.3,27.5,29.53,NE,41,2.0,10.0,93,0.00,,OVC055,0.00,VWS V13.01,2013-03-25 11:00:00,
2013-03-25 07:05:00,29.3,27.5,29.52,East,86,5.0,13.0,93,0.00,,,0.00,VWS V13.01,2013-03-25 11:05:00,
2013-03-25 07:10:00,29.4,27.6,29.52,NE,45,4.0,13.0,93,0.00,,,0.00,VWS V13.01,2013-03-25 11:10:00,
2013-03-25 07:15:00,29.4,27.6,29.52,NE,53,4.0,13.0,93,0.00,,,0.00,VWS V13.01,2013-03-25 11:15:00,
2013-03-25 07:20:00,29.4,27.6,29.53,NE,49,5.0,13.0,93,0.00,,,0.00,VWS V13.01,2013-03-25 11:20:00,
2013-03-25 07:25:00,29.4,27.6,29.52,NE,39,2.0,13.0,93,0.00,,,0.00,VWS V13.01,2013-03-25 11:25:00,
2013-03-25 07:30:00,29.4,27.6,29.53,North,350,5.0,6.0,93,0.00,,,0.00,VWS V13.01,2013-03-25 11:30:00,
2013-03-25 07:35:00,29.4,27.6,29.53,ENE,63,5.0,7.0,93,0.00,,,0.00,VWS V13.01,2013-03-25 11:35:00,
2013-03-25 07:40:00,29.4,27.9,29.53,ENE,60,5.0,9.0,94,0.00,,,0.00,VWS V13.01,2013-03-25 11:40:00,
2013-03-25 07:45:00,29.4,27.9,29.52,ENE,57,1.0,9.0,94,0.00,,,0.00,VWS V13.01,2013-03-25 11:45:00,
2013-03-25 07:50:00,29.5,28.0,29.53,NE,47,4.0,9.0,94,0.00,,,0.00,VWS V13.01,2013-03-25 11:50:00,
2013-03-25 07:55:00,29.5,28.0,29.53,NE,42,3.0,10.0,94,0.00,,,0.00,VWS V13.01,2013-03-25 11:55:00,
2013-03-25 08:00:00,29.5,28.0,29.53,NNE,13,5.0,6.0,94,0.00,,,0.00,VWS V13.01,2013-03-25 12:00:00,
2013-03-25 08:05:00,29.6,28.1,29.52,East,81,8.0,12.0,94,0.00,,,0.00,VWS V13.01,2013-03-25 12:05:00,
2013-03-25 08:10:00,29.6,28.1,29.52,NNE,31,2.0,12.0,94,0.00,,,0.00,VWS V13.01,2013-03-25 12:10:00,
2013-03-25 08:15:00,29.6,28.1,29.52,ENE,59,4.0,12.0,94,0.00,,,0.00,VWS V13.01,2013-03-25 12:15:00,
2013-03-25 08:20:00,29.7,28.2,29.52,NE,51,4.0,12.0,94,0.00,,,0.00,VWS V13.01,2013-03-25 12:20:00,
2013-03-25 08:25:00,29.7,28.2,29.52,NE,51,6.0,12.0,94,0.00,,,0.00,VWS V13.01,2013-03-25 12:25:00,
2013-03-25 08:30:00,29.8,28.3,29.52,North,350,5.0,7.0,94,0.00,,,0.00,VWS V13.01,2013-03-25 12:30:00,
2013-03-25 08:35:00,29.8,28.3,29.52,East,84,1.0,10.0,94,0.00,,,0.00,VWS V13.01,2013-03-25 12:35:00,
2013-03-25 08:40:00,29.9,28.4,29.53,NE,53,3.0,10.0,94,0.00,,,0.00,VWS V13.01,2013-03-25 12:40:00,
2013-03-25 08:45:00,29.9,28.4,29.52,NE,34,2.0,10.0,94,0.00,,,0.00,VWS V13.01,2013-03-25 12:45:00,
2013-03-25 08:50:00,29.9,28.1,29.52,NE,49,5.0,10.0,93,0.00,,,0.00,VWS V13.01,2013-03-25 12:50:00,
2013-03-25 08:55:00,30.0,28.2,29.52,ENE,75,5.0,10.0,93,0.00,,,0.00,VWS V13.01,2013-03-25 12:55:00,
2013-03-25 09:00:00,30.1,28.3,29.53,North,5,5.0,9.0,93,0.00,,,0.00,VWS V13.01,2013-03-25 13:00:00,
2013-03-25 09:05:00,30.1,28.3,29.52,ENE,63,1.0,10.0,93,0.00,,,0.00,VWS V13.01,2013-03-25 13:05:00,
2013-03-25 09:10:00,30.2,28.7,29.52,ENE,62,3.0,10.0,94,0.00,,,0.00,VWS V13.01,2013-03-25 13:10:00,
2013-03-25 09:15:00,30.3,28.5,29.52,NE,46,1.0,10.0,93,0.00,,,0.00,VWS V13.01,2013-03-25 13:15:00,
2013-03-25 09:20:00,30.3,28.5,29.52,NE,39,9.0,10.0,93,0.00,,,0.00,VWS V13.01,2013-03-25 13:20:00,
2013-03-25 09:25:00,30.3,28.5,29.52,NE,38,2.0,10.0,93,0.00,,,0.00,VWS V13.01,2013-03-25 13:25:00,
2013-03-25 09:30:00,30.5,28.7,29.52,North,355,2.0,6.0,93,0.00,,,0.00,VWS V13.01,2013-03-25 13:30:00,
2013-03-25 09:35:00,30.6,28.8,29.52,NNE,23,4.0,7.0,93,0.00,,,0.00,VWS V13.01,2013-03-25 13:35:00,
2013-03-25 09:40:00,30.7,28.9,29.52,NE,53,4.0,7.0,93,0.00,,,0.00,VWS V13.01,2013-03-25 13:40:00,
2013-03-25 09:45:00,30.8,29.0,29.52,North,9,12.0,12.0,93,0.00,,,0.00,VWS V13.01,2013-03-25 13:45:00,
2013-03-25 09:50:00,30.8,29.0,29.52,ENE,60,4.0,12.0,93,0.00,,,0.00,VWS V13.01,2013-03-25 13:50:00,
2013-03-25 09:55:00,30.8,29.0,29.52,NE,45,7.0,13.0,93,0.00,,,0.00,VWS V13.01,2013-03-25 13:55:00,
2013-03-25 10:00:00,31.0,29.2,29.52,East,93,4.0,7.0,93,0.00,,,0.00,VWS V13.01,2013-03-25 14:00:00,
2013-03-25 10:05:00,31.1,29.3,29.52,NE,44,4.0,10.0,93,0.00,,OVC060,0.00,VWS V13.01,2013-03-25 14:05:00,
2013-03-25 10:10:00,31.4,29.6,29.52,ENE,63,5.0,13.0,93,0.01,,OVC060,0.01,VWS V13.01,2013-03-25 14:10:00,
2013-03-25 10:15:00,31.5,29.7,29.53,ENE,57,1.0,13.0,93,0.01,,OVC060,0.01,VWS V13.01,2013-03-25 14:15:00,
2013-03-25 10:21:00,31.6,29.8,29.53,NE,48,3.0,13.0,93,0.01,,OVC060,0.01,VWS V13.01,2013-03-25 14:21:00,
2013-03-25 10:26:00,31.7,29.9,29.53,NE,51,3.0,13.0,93,0.01,,OVC060,0.01,VWS V13.01,2013-03-25 14:26:00,
2013-03-25 10:30:00,31.8,29.8,29.53,ENE,74,6.0,13.0,92,0.01,,OVC055,0.01,VWS V13.01,2013-03-25 14:30:00,
2013-03-25 10:31:00,31.8,29.8,29.53,ENE,59,4.0,6.0,92,0.01,,OVC060,0.01,VWS V13.01,2013-03-25 14:31:00,
2013-03-25 10:36:00,32.0,30.2,29.53,NE,56,3.0,10.0,93,0.01,,OVC060,0.01,VWS V13.01,2013-03-25 14:36:00,
2013-03-25 10:41:00,32.2,30.1,29.53,ENE,69,0.0,10.0,92,0.01,,OVC060,0.01,VWS V13.01,2013-03-25 14:41:00,
2013-03-25 10:46:00,32.4,30.3,29.53,ENE,61,4.0,11.0,92,0.01,,OVC060,0.01,VWS V13.01,2013-03-25 14:46:00,
2013-03-25 10:51:00,32.4,30.3,29.53,ENE,57,5.0,11.0,92,0.01,,OVC060,0.01,VWS V13.01,2013-03-25 14:51:00,
2013-03-25 10:56:00,32.5,30.4,29.53,ENE,67,3.0,11.0,92,0.01,,OVC060,0.01,VWS V13.01,2013-03-25 14:56:00,
2013-03-25 11:00:00,32.5,30.4,29.53,ENE,69,3.0,11.0,92,0.01,,OVC055,0.01,VWS V13.01,2013-03-25 15:00:00,
2013-03-25 11:01:00,32.5,30.4,29.53,NE,43,4.0,10.0,92,0.01,,OVC060,0.01,VWS V13.01,2013-03-25 15:01:00,
2013-03-25 11:06:00,32.5,30.4,29.53,East,85,1.0,10.0,92,0.01,,,0.01,VWS V13.01,2013-03-25 15:06:00,
2013-03-25 11:11:00,32.8,30.7,29.53,NE,46,7.0,10.0,92,0.01,,,0.01,VWS V13.01,2013-03-25 15:11:00,
2013-03-25 11:16:00,32.8,30.7,29.53,ENE,71,4.0,10.0,92,0.01,,,0.01,VWS V13.01,2013-03-25 15:16:00,
2013-03-25 11:21:00,32.9,30.8,29.53,NE,50,3.0,10.0,92,0.01,,,0.01,VWS V13.01,2013-03-25 15:21:00,
2013-03-25 11:26:00,33.1,31.0,29.53,NE,55,2.0,10.0,92,0.01,,,0.01,VWS V13.01,2013-03-25 15:26:00,
2013-03-25 11:30:00,33.1,31.0,29.53,ENE,68,2.0,10.0,92,0.01,,OVC055,0.01,VWS V13.01,2013-03-25 15:30:00,
2013-03-25 11:32:00,33.3,31.2,29.53,East,96,1.0,3.0,92,0.00,,,0.01,VWS V13.01,2013-03-25 15:32:00,
2013-03-25 11:37:00,33.7,31.6,29.53,NE,49,1.0,6.0,92,0.00,,,0.01,VWS V13.01,2013-03-25 15:37:00,
2013-03-25 11:42:00,33.9,31.8,29.53,ENE,61,3.0,7.0,92,0.00,,,0.01,VWS V13.01,2013-03-25 15:42:00,
2013-03-25 11:47:00,34.1,31.8,29.53,NE,41,3.0,7.0,91,0.00,,,0.01,VWS V13.01,2013-03-25 15:47:00,
2013-03-25 11:52:00,34.4,32.0,29.53,NNE,31,6.0,7.0,91,0.00,,,0.01,VWS V13.01,2013-03-25 15:52:00,
2013-03-25 11:57:00,34.4,32.0,29.53,NNE,28,4.0,11.0,91,0.00,,,0.01,VWS V13.01,2013-03-25 15:57:00,
2013-03-25 12:00:00,34.4,32.0,29.53,NE,53,4.0,12.0,91,0.00,,OVC055,0.01,VWS V13.01,2013-03-25 16:00:00,
2013-03-25 12:02:00,34.4,32.0,29.53,ENE,74,0.0,6.0,91,0.00,,OVC055,0.01,VWS V13.01,2013-03-25 16:02:00,
2013-03-25 12:30:00,34.4,32.0,29.54,NE,45,3.0,10.0,91,0.02,,OVC055,0.03,VWS V13.01,2013-03-25 16:30:00,
2013-03-25 13:00:00,35.3,32.7,29.54,NE,45,3.0,12.0,90,0.02,,OVC055,0.03,VWS V13.01,2013-03-25 17:00:00,
2013-03-25 13:34:00,35.6,32.4,29.55,NE,45,4.0,14.0,88,0.02,,OVC055,0.03,VWS V13.01,2013-03-25 17:34:00,
2013-03-25 13:45:00,35.5,32.6,29.55,NNE,16,2.0,2.0,89,0.00,,OVC055,0.03,VWS V13.01,2013-03-25 17:45:00,
2013-03-25 13:50:00,35.8,32.9,29.55,ESE,105,2.0,7.0,89,0.00,,,0.03,VWS V13.01,2013-03-25 17:50:00,
2013-03-25 13:55:00,35.5,32.6,29.55,NE,56,2.0,12.0,89,0.00,,,0.03,VWS V13.01,2013-03-25 17:55:00,
2013-03-25 14:05:00,35.3,32.4,29.55,NE,45,4.0,13.0,89,0.01,,,0.04,VWS V13.01,2013-03-25 18:05:00,
2013-03-25 14:10:00,35.1,32.2,29.56,NNE,25,3.0,15.0,89,0.01,,,0.04,VWS V13.01,2013-03-25 18:10:00,
2013-03-25 14:15:00,35.1,32.2,29.56,NE,51,3.0,15.0,89,0.01,,,0.04,VWS V13.01,2013-03-25 18:15:00,
2013-03-25 14:20:00,35.1,32.2,29.56,ENE,59,3.0,15.0,89,0.01,,,0.04,VWS V13.01,2013-03-25 18:20:00,
2013-03-25 14:26:00,35.2,32.6,29.56,NNE,23,4.0,15.0,90,0.01,,,0.04,VWS V13.01,2013-03-25 18:26:00,
2013-03-25 14:31:00,35.1,32.2,29.56,NE,39,6.0,10.0,89,0.01,,,0.04,VWS V13.01,2013-03-25 18:31:00,
2013-03-25 14:36:00,35.0,32.1,29.56,North,360,5.0,12.0,89,0.01,,,0.04,VWS V13.01,2013-03-25 18:36:00,
2013-03-25 14:41:00,35.1,32.2,29.56,NE,54,5.0,12.0,89,0.01,,,0.04,VWS V13.01,2013-03-25 18:41:00,
2013-03-25 14:46:00,35.3,32.4,29.56,NE,54,3.0,12.0,89,0.01,,,0.04,VWS V13.01,2013-03-25 18:46:00,
2013-03-25 14:51:00,35.6,32.7,29.56,ENE,78,4.0,12.0,89,0.01,,,0.04,VWS V13.01,2013-03-25 18:51:00,
2013-03-25 14:56:00,35.9,32.7,29.56,ENE,74,5.0,12.0,88,0.01,,,0.04,VWS V13.01,2013-03-25 18:56:00,
2013-03-25 15:01:00,36.0,32.5,29.56,NE,44,3.0,6.0,87,0.00,,,0.04,VWS V13.01,2013-03-25 19:01:00,
2013-03-25 15:06:00,36.1,32.6,29.56,NE,38,3.0,7.0,87,0.00,,,0.04,VWS V13.01,2013-03-25 19:06:00,
2013-03-25 15:11:00,36.1,32.6,29.56,NE,39,4.0,12.0,87,0.00,,,0.04,VWS V13.01,2013-03-25 19:11:00,
2013-03-25 15:17:00,36.2,32.4,29.56,ENE,69,1.0,13.0,86,0.00,,,0.04,VWS V13.01,2013-03-25 19:17:00,
2013-03-25 15:22:00,36.3,32.5,29.56,ENE,62,9.0,13.0,86,0.00,,,0.04,VWS V13.01,2013-03-25 19:22:00,
2013-03-25 15:27:00,36.5,32.4,29.57,NE,43,2.0,13.0,85,0.00,,,0.04,VWS V13.01,2013-03-25 19:27:00,
2013-03-25 15:32:00,36.8,32.4,29.57,North,355,7.0,10.0,84,0.00,,,0.04,VWS V13.01,2013-03-25 19:32:00,
2013-03-25 15:37:00,36.7,32.0,29.57,ESE,110,6.0,13.0,83,0.00,,,0.04,VWS V13.01,2013-03-25 19:37:00,
2013-03-25 15:42:00,36.9,31.9,29.57,NNE,28,2.0,13.0,82,0.00,,,0.04,VWS V13.01,2013-03-25 19:42:00,
2013-03-25 15:47:00,37.1,31.8,29.57,NE,52,3.0,13.0,81,0.00,,,0.04,VWS V13.01,2013-03-25 19:47:00,
2013-03-25 15:52:00,37.2,31.6,29.57,ENE,59,4.0,13.0,80,0.00,,,0.04,VWS V13.01,2013-03-25 19:52:00,
2013-03-25 15:57:00,37.2,31.3,29.57,ENE,65,0.0,13.0,79,0.00,,,0.04,VWS V13.01,2013-03-25 19:57:00,
2013-03-25 16:02:00,37.2,31.3,29.57,ENE,58,2.0,8.0,79,0.00,,,0.04,VWS V13.01,2013-03-25 20:02:00,
2013-03-25 16:07:00,37.3,31.4,29.58,ENE,70,8.0,9.0,79,0.00,,OVC055,0.04,VWS V13.01,2013-03-25 20:07:00,
2013-03-25 16:12:00,37.3,31.1,29.58,East,84,1.0,10.0,78,0.00,,OVC055,0.04,VWS V13.01,2013-03-25 20:12:00,
2013-03-25 16:17:00,37.5,31.3,29.58,ENE,58,4.0,10.0,78,0.00,,OVC055,0.04,VWS V13.01,2013-03-25 20:17:00,
2013-03-25 16:22:00,37.4,31.5,29.58,NNW,340,5.0,12.0,79,0.00,,OVC055,0.04,VWS V13.01,2013-03-25 20:22:00,
2013-03-25 16:27:00,37.2,31.0,29.58,North,9,4.0,17.0,78,0.00,,OVC055,0.04,VWS V13.01,2013-03-25 20:27:00,
2013-03-25 16:32:00,37.2,31.3,29.58,ENE,78,3.0,13.0,79,0.00,,OVC055,0.04,VWS V13.01,2013-03-25 20:32:00,
2013-03-25 16:37:00,37.1,31.2,29.59,North,355,3.0,16.0,79,0.00,,OVC055,0.04,VWS V13.01,2013-03-25 20:37:00,
2013-03-25 16:42:00,37.1,31.2,29.59,NE,50,4.0,16.0,79,0.00,,OVC055,0.04,VWS V13.01,2013-03-25 20:42:00,
2013-03-25 16:47:00,37.0,31.4,29.59,NNE,19,3.0,16.0,80,0.00,,OVC055,0.04,VWS V13.01,2013-03-25 20:47:00,
2013-03-25 16:52:00,36.8,31.5,29.59,ENE,73,0.0,16.0,81,0.00,,OVC055,0.04,VWS V13.01,2013-03-25 20:52:00,
2013-03-25 16:57:00,36.8,31.5,29.59,NNW,347,1.0,16.0,81,0.00,,OVC055,0.04,VWS V13.01,2013-03-25 20:57:00,
2013-03-25 17:02:00,36.8,31.8,29.59,NNE,27,4.0,6.0,82,0.00,,OVC070,0.04,VWS V13.01,2013-03-25 21:02:00,
2013-03-25 17:07:00,36.7,31.7,29.59,ENE,58,1.0,9.0,82,0.00,,OVC070,0.04,VWS V13.01,2013-03-25 21:07:00,
2013-03-25 17:12:00,36.8,31.8,29.60,NE,38,0.0,10.0,82,0.00,,OVC070,0.04,VWS V13.01,2013-03-25 21:12:00,
2013-03-25 17:17:00,36.9,31.9,29.60,ESE,105,2.0,10.0,82,0.00,,OVC070,0.04,VWS V13.01,2013-03-25 21:17:00,
2013-03-25 17:22:00,37.0,32.0,29.60,ENE,61,0.0,11.0,82,0.00,,OVC070,0.04,VWS V13.01,2013-03-25 21:22:00,
2013-03-25 17:28:00,37.1,32.1,29.60,NNE,28,0.0,11.0,82,0.00,,OVC070,0.04,VWS V13.01,2013-03-25 21:28:00,
2013-03-25 17:33:00,37.3,32.3,29.61,North,360,8.0,9.0,82,0.00,,OVC070,0.04,VWS V13.01,2013-03-25 21:33:00,
2013-03-25 17:38:00,37.2,31.9,29.61,NNE,20,4.0,10.0,81,0.00,,OVC070,0.04,VWS V13.01,2013-03-25 21:38:00,
2013-03-25 17:43:00,37.1,31.8,29.61,North,5,4.0,10.0,81,0.00,,OVC070,0.04,VWS V13.01,2013-03-25 21:43:00,
2013-03-25 17:48:00,37.1,31.8,29.61,North,360,1.0,10.0,81,0.00,,OVC070,0.04,VWS V13.01,2013-03-25 21:48:00,
2013-03-25 17:53:00,37.1,31.8,29.61,North,360,2.0,10.0,81,0.00,,OVC070,0.04,VWS V13.01,2013-03-25 21:53:00,
2013-03-25 17:58:00,37.1,31.8,29.62,NE,55,6.0,10.0,81,0.00,,OVC070,0.04,VWS V13.01,2013-03-25 21:58:00,
2013-03-25 18:03:00,36.7,31.7,29.62,NNE,14,2.0,6.0,82,0.00,,OVC045,0.04,VWS V13.01,2013-03-25 22:03:00,
2013-03-25 18:08:00,36.4,31.7,29.62,North,10,1.0,7.0,83,0.00,,OVC045,0.04,VWS V13.01,2013-03-25 22:08:00,
2013-03-25 18:13:00,36.1,31.5,29.63,NNW,340,11.0,11.0,83,0.00,,OVC045,0.04,VWS V13.01,2013-03-25 22:13:00,
2013-03-25 18:18:00,35.9,31.5,29.63,ENE,59,2.0,11.0,84,0.00,,OVC045,0.04,VWS V13.01,2013-03-25 22:18:00,
2013-03-25 18:23:00,35.7,31.4,29.64,NE,49,0.0,11.0,84,0.00,,OVC045,0.04,VWS V13.01,2013-03-25 22:23:00,
2013-03-25 18:28:00,35.7,31.6,29.64,North,5,1.0,11.0,85,0.00,,OVC045,0.04,VWS V13.01,2013-03-25 22:28:00,
2013-03-25 18:33:00,35.6,31.8,29.64,North,355,2.0,4.0,86,0.00,,OVC045,0.04,VWS V13.01,2013-03-25 22:33:00,
2013-03-25 18:38:00,35.5,31.7,29.65,NE,46,1.0,6.0,86,0.00,,OVC045,0.04,VWS V13.01,2013-03-25 22:38:00,
2013-03-25 18:43:00,35.3,31.8,29.65,NNE,20,3.0,7.0,87,0.00,,OVC045,0.04,VWS V13.01,2013-03-25 22:43:00,
2013-03-25 18:48:00,35.2,32.0,29.65,NE,41,2.0,7.0,88,0.00,,OVC070,0.04,VWS V13.01,2013-03-25 22:48:00,
2013-03-25 18:53:00,35.1,31.9,29.66,ENE,69,4.0,7.0,88,0.00,,OVC070,0.04,VWS V13.01,2013-03-25 22:53:00,
2013-03-25 18:58:00,34.9,32.0,29.66,North,5,3.0,7.0,89,0.00,,OVC070,0.04,VWS V13.01,2013-03-25 22:58:00,
2013-03-25 19:03:00,34.8,31.9,29.66,NE,48,1.0,9.0,89,0.00,,OVC065,0.04,VWS V13.01,2013-03-25 23:03:00,
2013-03-25 19:08:00,34.7,31.8,29.66,NE,34,1.0,9.0,89,0.00,,OVC065,0.04,VWS V13.01,2013-03-25 23:08:00,
2013-03-25 19:13:00,34.6,32.0,29.66,NNE,19,1.0,10.0,90,0.00,,OVC065,0.04,VWS V13.01,2013-03-25 23:13:00,
2013-03-25 19:18:00,34.5,31.9,29.67,NNE,33,0.0,10.0,90,0.00,,OVC065,0.04,VWS V13.01,2013-03-25 23:18:00,
2013-03-25 19:23:00,34.5,31.9,29.67,ENE,74,1.0,10.0,90,0.00,,OVC065,0.04,VWS V13.01,2013-03-25 23:23:00,
2013-03-25 19:28:00,34.4,31.8,29.67,NE,35,0.0,10.0,90,0.00,,OVC065,0.04,VWS V13.01,2013-03-25 23:28:00,
2013-03-25 19:33:00,34.5,32.2,29.67,NE,53,1.0,6.0,91,0.00,,OVC065,0.04,VWS V13.01,2013-03-25 23:33:00,
2013-03-25 19:38:00,34.5,32.2,29.68,ENE,70,2.0,6.0,91,0.00,,OVC065,0.04,VWS V13.01,2013-03-25 23:38:00,
2013-03-25 19:43:00,34.6,32.2,29.68,ENE,58,1.0,6.0,91,0.00,,OVC065,0.04,VWS V13.01,2013-03-25 23:43:00,
2013-03-25 19:48:00,34.6,32.2,29.68,NE,55,0.0,6.0,91,0.00,,OVC065,0.04,VWS V13.01,2013-03-25 23:48:00,
2013-03-25 19:53:00,34.6,32.2,29.68,NNE,29,5.0,6.0,91,0.00,,OVC065,0.04,VWS V13.01,2013-03-25 23:53:00,
2013-03-25 19:58:00,34.7,32.3,29.69,NE,43,3.0,6.0,91,0.00,,OVC065,0.04,VWS V13.01,2013-03-25 23:58:00,
2013-03-25 20:03:00,34.8,32.2,29.69,NE,46,0.0,4.0,90,0.00,,OVC060,0.04,VWS V13.01,2013-03-26 00:03:00,
2013-03-25 20:08:00,34.9,32.3,29.69,NE,45,0.0,4.0,90,0.00,,OVC060,0.04,VWS V13.01,2013-03-26 00:08:00,
2013-03-25 20:14:00,35.0,32.1,29.70,NE,46,0.0,5.0,89,0.00,,OVC060,0.04,VWS V13.01,2013-03-26 00:14:00,
2013-03-25 20:19:00,35.1,32.2,29.70,ENE,62,2.0,5.0,89,0.00,,OVC060,0.04,VWS V13.01,2013-03-26 00:19:00,
2013-03-25 20:24:00,35.1,32.2,29.70,NE,34,0.0,5.0,89,0.00,,OVC060,0.04,VWS V13.01,2013-03-26 00:24:00,
2013-03-25 20:29:00,35.2,32.0,29.70,ENE,63,4.0,5.0,88,0.00,,OVC060,0.04,VWS V13.01,2013-03-26 00:29:00,
2013-03-25 20:34:00,35.3,32.1,29.70,ENE,70,3.0,4.0,88,0.00,,OVC060,0.04,VWS V13.01,2013-03-26 00:34:00,
2013-03-25 20:39:00,35.3,32.1,29.71,NE,51,0.0,4.0,88,0.00,,OVC060,0.04,VWS V13.01,2013-03-26 00:39:00,
2013-03-25 20:44:00,35.3,32.1,29.71,NE,50,1.0,4.0,88,0.00,,OVC060,0.04,VWS V13.01,2013-03-26 00:44:00,
2013-03-25 20:49:00,35.2,32.0,29.71,NE,46,0.0,4.0,88,0.00,,OVC060,0.04,VWS V13.01,2013-03-26 00:49:00,
2013-03-25 20:54:00,35.2,32.0,29.71,NE,48,0.0,4.0,88,0.00,,OVC060,0.04,VWS V13.01,2013-03-26 00:54:00,
2013-03-25 20:59:00,35.1,31.9,29.72,North,5,1.0,4.0,88,0.00,,OVC060,0.04,VWS V13.01,2013-03-26 00:59:00,
2013-03-25 21:04:00,35.0,31.8,29.72,North,5,0.0,0.0,88,0.00,,OVC085,0.04,VWS V13.01,2013-03-26 01:04:00,
2013-03-25 21:09:00,34.9,31.7,29.72,NNE,15,0.0,2.0,88,0.00,,OVC085,0.04,VWS V13.01,2013-03-26 01:09:00,
2013-03-25 21:14:00,34.7,31.5,29.72,NNE,25,0.0,2.0,88,0.00,,OVC085,0.04,VWS V13.01,2013-03-26 01:14:00,
2013-03-25 21:19:00,34.6,31.4,29.73,NNE,28,0.0,3.0,88,0.00,,OVC085,0.04,VWS V13.01,2013-03-26 01:19:00,
2013-03-25 21:24:00,34.5,31.3,29.73,NNE,28,0.0,3.0,88,0.00,,OVC085,0.04,VWS V13.01,2013-03-26 01:24:00,
2013-03-25 21:29:00,34.4,31.2,29.73,NNE,28,0.0,3.0,88,0.00,,OVC085,0.04,VWS V13.01,2013-03-26 01:29:00,
2013-03-25 21:34:00,34.4,31.2,29.73,NNE,28,0.0,1.0,88,0.00,,OVC085,0.04,VWS V13.01,2013-03-26 01:34:00,
2013-03-25 21:39:00,34.4,31.2,29.73,NNE,28,0.0,1.0,88,0.00,,OVC085,0.04,VWS V13.01,2013-03-26 01:39:00,
2013-03-25 21:44:00,34.4,31.2,29.73,NNE,28,0.0,1.0,88,0.00,,OVC085,0.04,VWS V13.01,2013-03-26 01:44:00,
2013-03-25 21:49:00,34.4,31.2,29.74,NNE,28,0.0,1.0,88,0.00,,OVC085,0.04,VWS V13.01,2013-03-26 01:49:00,
2013-03-25 21:54:00,34.2,31.0,29.74,NNE,28,0.0,1.0,88,0.00,,OVC085,0.04,VWS V13.01,2013-03-26 01:54:00,
2013-03-25 21:59:00,34.1,30.9,29.74,NNE,28,0.0,1.0,88,0.00,,OVC085,0.04,VWS V13.01,2013-03-26 01:59:00,
2013-03-25 22:04:00,33.9,30.7,29.74,NNE,28,0.0,0.0,88,0.00,,OVC080,0.04,VWS V13.01,2013-03-26 02:04:00,
2013-03-25 22:09:00,33.7,30.8,29.74,NNE,28,0.0,0.0,89,0.00,,OVC080,0.04,VWS V13.01,2013-03-26 02:09:00,
2013-03-25 22:14:00,33.6,30.4,29.74,NNE,28,0.0,0.0,88,0.00,,OVC080,0.04,VWS V13.01,2013-03-26 02:14:00,
2013-03-25 22:19:00,33.4,30.2,29.74,NNE,28,0.0,0.0,88,0.00,,OVC080,0.04,VWS V13.01,2013-03-26 02:19:00,
2013-03-25 22:24:00,33.2,30.3,29.75,NNE,28,0.0,0.0,89,0.00,,OVC080,0.04,VWS V13.01,2013-03-26 02:24:00,
2013-03-25 22:29:00,32.9,30.0,29.75,NNE,28,0.0,0.0,89,0.00,,OVC080,0.04,VWS V13.01,2013-03-26 02:29:00,
2013-03-25 22:34:00,32.6,29.7,29.75,NNE,28,0.0,0.0,89,0.00,,OVC080,0.04,VWS V13.01,2013-03-26 02:34:00,
2013-03-25 22:39:00,32.4,29.5,29.75,NNE,28,0.0,0.0,89,0.00,,OVC080,0.04,VWS V13.01,2013-03-26 02:39:00,
2013-03-25 22:44:00,32.2,29.3,29.75,NNE,28,0.0,0.0,89,0.00,,OVC080,0.04,VWS V13.01,2013-03-26 02:44:00,
2013-03-25 22:49:00,32.1,29.5,29.75,NNE,28,0.0,0.0,90,0.00,,OVC080,0.04,VWS V13.01,2013-03-26 02:49:00,
2013-03-25 22:54:00,32.1,29.5,29.76,NNE,28,0.0,0.0,90,0.00,,OVC080,0.04,VWS V13.01,2013-03-26 02:54:00,
2013-03-25 22:59:00,32.1,29.5,29.76,NNE,28,0.0,0.0,90,0.00,,OVC080,0.04,VWS V13.01,2013-03-26 02:59:00,
2013-03-25 23:04:00,32.0,29.4,29.76,NNE,28,0.0,0.0,90,0.00,,BKN048,0.04,VWS V13.01,2013-03-26 03:04:00,
2013-03-25 23:09:00,31.9,29.6,29.76,NNE,28,0.0,0.0,91,0.00,,BKN048,0.04,VWS V13.01,2013-03-26 03:09:00,
2013-03-25 23:14:00,31.9,29.6,29.76,NNE,28,0.0,0.0,91,0.00,,BKN048,0.04,VWS V13.01,2013-03-26 03:14:00,
2013-03-25 23:21:00,31.9,29.6,29.76,NNE,28,0.0,0.0,91,0.00,,BKN048,0.04,VWS V13.01,2013-03-26 03:21:00,
2013-03-25 23:26:00,31.9,29.6,29.76,NNE,28,0.0,0.0,91,0.00,,BKN048,0.04,VWS V13.01,2013-03-26 03:26:00,
2013-03-25 23:32:00,31.9,29.6,29.76,NNE,28,0.0,0.0,91,0.00,,BKN048,0.04,VWS V13.01,2013-03-26 03:32:00,
2013-03-25 23:37:00,31.8,29.5,29.76,NNE,28,0.0,0.0,91,0.00,,BKN048,0.04,VWS V13.01,2013-03-26 03:37:00,
2013-03-25 23:42:00,31.8,29.8,29.76,NNE,28,0.0,0.0,92,0.00,,BKN048,0.04,VWS V13.01,2013-03-26 03:42:00,
2013-03-25 23:47:00,31.7,29.6,29.76,NNE,28,0.0,0.0,92,0.00,,BKN048,0.04,VWS V13.01,2013-03-26 03:47:00,
2013-03-25 23:52:00,31.7,29.6,29.76,NNE,28,0.0,0.0,92,0.00,,BKN048,0.04,VWS V13.01,2013-03-26 03:52:00,
2013-03-25 23:57:00,31.7,29.6,29.77,NNE,28,0.0,0.0,92,0.00,,BKN048,0.04,VWS V13.01,2013-03-26 03:57:00,